Location: Dallas
(32.7833°N, 96.8000°W)
Time: 04:13:41
(UTC-05:00)

Envisat - Pass Details

Date: 25 March 2018
Orbit: 764 x 766 km, 98.1° (Epoch: 14 October)

Event Time Altitude Azimuth Distance (km) Brightness Sun altitude
Exits shadow 20:41:26 - 152° (SSE) 2,818 5.6 -13.1°
Reaches altitude 10° 20:42:47 10° 149° (SSE) 2,291 5.1 -13.4°
Maximum altitude 20:47:40 52° 74° (ENE) 947 3.1 -14.4°
Drops below altitude 10° 20:52:35 10° 359° (N) 2,305 5.6 -15.4°
Sets 20:54:56 0° 355° (N) 3,235 6.5 -15.9°
